This demonstration page uses our WeatherBlox Daily Observations layout. Learn more.

39.92423, -83.80882

Hourly Observations for June 14, 2020

Temp ( °F °C ) Dew Point ( °F °C ) Humidity (%) Winds ( mph kmh ) Pressure ( in mb ) Visibility ( mi km ) Precip ( " mm )
12:56 am 00:56 Clear 52 11.1 43 6.1 72 72 NE 9 15 30.25 1024 10 16.0934 0 0
1:56 am 01:56 Partly Cloudy 51 10.6 43 6.1 74 74 NE 8 13 30.26 1025 10 16.0934 0 0
2:56 am 02:56 Clear 52 11.1 43 6.1 72 72 NE 8 13 30.26 1025 10 16.0934 0 0
3:56 am 03:56 Clear 51 10.6 42 5.6 71 71 NE 10 17 30.25 1025 10 16.0934 0 0
4:56 am 04:56 Clear 51 10.6 41 5 69 69 NE 9 15 30.25 1025 10 16.0934 0.01 0.254
5:56 am 05:56 Clear 51 10.6 40 4.4 66 66 NE 8 13 30.26 1025 10 16.0934 0.39 9.906
6:56 am 06:56 Sunny 51 10.6 41 5 69 69 NE 8 13 30.27 1025 10 16.0934 0 0
7:56 am 07:56 Sunny 53 11.7 43 6.1 69 69 NE 9 15 30.28 1026 10 16.0934 0 0
8:56 am 08:56 Sunny 55 12.8 45 7.2 69 69 NNE 5 7 30.31 1026 10 16.0934 0.12 3.048
9:56 am 09:56 Sunny 58 14.4 45 7.2 62 62 NE 13 20 30.3 1026 10 16.0934 0 0
10:56 am 10:56 Sunny 60 15.6 47 8.3 62 62 ENE 9 15 30.29 1026 10 16.0934 0 0
11:56 am 11:56 Sunny 65 18.3 46 7.8 51 51 ENE 12 19 30.29 1026 10 16.0934 0.12 3.048
12:56 pm 12:56 Sunny 68 20 47 8.3 47 47 NE 10 17 30.29 1026 9 14.48406 0 0
1:56 pm 13:56 Sunny 70 21.1 47 8.3 44 44 NNE 14 22 30.28 1026 10 16.0934 0.24 6.096
2:56 pm 14:56 Sunny 71 21.7 48 8.9 44 44 NNE 13 20 30.27 1025 10 16.0934 0.04 1.016
3:56 pm 15:56 Mostly Sunny 72 22.2 49 9.4 44 44 NNE 14 22 30.26 1025 9 14.48406 0.01 0.254
4:56 pm 16:56 Sunny 70 21.1 47 8.3 44 44 NE 10 17 30.25 1024 10 16.0934 0 0
5:56 pm 17:56 Mostly Sunny 72 22.2 48 8.9 43 43 NE 9 15 30.23 1024 10 16.0934 0.67 17.018
6:56 pm 18:56 Mostly Cloudy 69 20.6 47 8.3 45 45 NNE 9 15 30.24 1024 10 16.0934 0.05 1.27
7:56 pm 19:56 Cloudy 68 20 48 8.9 49 49 NNE 15 24 30.26 1025 10 16.0934 0.01 0.254
8:56 pm 20:56 Sunny 64 17.8 47 8.3 54 54 NNE 14 22 30.27 1025 10 16.0934 0.1 2.54
9:56 pm 21:56 Clear 61 16.1 46 7.8 58 58 NNE 10 17 30.28 1025 10 16.0934 0.41 10.414
10:56 pm 22:56 Clear 59 15 42 5.6 54 54 NNE 13 20 30.28 1026 10 16.0934 0 0
11:56 pm 23:56 Clear 56 13.3 41 5 57 57 NE 8 13 30.28 1025 10 16.0934 0 0

Powered by AerisWeather